Location: Hawks Ness
(60.2333°N, 1.1667°W)
Time: 07:36:24
(UTC+00:00)

ADEOS II - Pass Details

Date: 22 October 2019
Orbit: 800 x 800 km, 98.5° (Epoch: 16 November)

Event Time Altitude Azimuth Distance (km) Brightness Sun altitude
Rises 05:54:31 0° 20° (NNE) 3,326 5.5 -8.8°
Reaches altitude 10° 05:57:49 10° 359° (N) 2,392 4.5 -8.4°
Maximum altitude 06:00:41 15° 325° (NW) 2,055 3.8 -8.1°
Drops below altitude 10° 06:03:34 10° 292° (WNW) 2,387 3.9 -7.7°
Enters shadow 06:03:56 - 289° (WNW) 2,470 4.0 -7.7°
